Barking Sands, HI

7:20 AM HST on June 27, 2017 (GMT -1000)
Barking Sands PMRF

Weather History for PHBK - November, 2012

Change the Weather History Date:

Thursday, November 1, 2012

  Actual Average Record
Temperature  
Mean Temperature 76 °F -  
Max Temperature 82 °F 85 °F 89 °F (1974)
Min Temperature 71 °F 66 °F 63 °F (1965)
Cooling Degree Days 12    
Growing Degree Days 26 (Base 50)    
Moisture  
Dew Point 48 °F    
Average Humidity 47    
Maximum Humidity 84    
Minimum Humidity 4    
Precipitation  
Precipitation 0.00 in - - ()
Sea Level Pressure  
Sea Level Pressure 29.99 in    
Wind  
Wind Speed 5 mph (ESE)    
Max Wind Speed 10 mph    
Max Gust Speed -    
Visibility 10 miles    
Events      
Averages and records for this station are not official NWS values.
T = Trace of Precipitation, MM = Missing Value Source: NWS Daily Summary

Daily Weather History Graph

Daily Weather History Graph

Search for Another Location

Airport or City:

Trip Planner

Search our weather history database for the weather conditions in past years. The results will help you decide how hot, cold, wet, or windy it might be!

Date:

Astronomy

Nov. 01, 2012 Rise Set
Actual Time 6:43 AM HST 6:01 PM HST
Civil Twilight 6:20 AM HST 6:24 PM HST
Nautical Twilight 5:53 AM HST 6:51 PM HST
Astronomical Twilight 5:27 AM HST 7:17 PM HST
Moon 8:22 PM HST (11/1) 9:11 AM HST (11/1)
Length of Visible Light 12h 04m
Length of Day
11h 18m
Waning Gibbous, 92% of the Moon is Illuminated
Nov 1
Waning Gibbous
Nov 6
Last Quarter
Nov 13
New
Nov 20
First Quarter
Nov 28
Full

Hourly Weather History & Observations

Time (HST) Temp. Dew Point Humidity Pressure Visibility Wind Dir Wind Speed Gust Speed Precip Events Conditions
12:56 AM 72.0 °F 59.0 °F 64% 30.02 in 10.0 mi East 3.5 mph - N/A   Clear
1:56 AM 71.1 °F 57.9 °F 63% 30.00 in 10.0 mi East 4.6 mph - N/A   Clear
2:56 AM 72.0 °F 57.9 °F 61% 29.99 in 10.0 mi East 4.6 mph - N/A   Clear
3:56 AM 72.0 °F 57.9 °F 61% 29.99 in 10.0 mi East 5.8 mph - N/A   Clear
4:56 AM 71.1 °F -9.9 °F 4% 29.98 in 10.0 mi East 5.8 mph - N/A   Clear
5:56 AM 71.1 °F 55.0 °F 57% 29.99 in 10.0 mi East 3.5 mph - N/A   Clear
6:56 AM 71.1 °F 66.0 °F 84% 30.01 in 10.0 mi East 5.8 mph - N/A   Clear
7:56 AM 75.9 °F 55.0 °F 48% 30.02 in 10.0 mi East 4.6 mph - N/A   Clear
8:56 AM 79.0 °F 34.0 °F 20% 30.04 in 10.0 mi Calm Calm - N/A   Clear
9:56 AM 80.1 °F - N/A% 30.04 in 10.0 mi West 5.8 mph - N/A   Clear
10:56 AM 81.0 °F - N/A% 30.03 in 10.0 mi West 5.8 mph - N/A   Clear
11:56 AM 81.0 °F - N/A% 30.01 in 10.0 mi WNW 5.8 mph - N/A   Partly Cloudy
12:56 PM 82.9 °F - N/A% 29.98 in 10.0 mi WNW 6.9 mph - N/A   Scattered Clouds
1:56 PM 81.0 °F - N/A% 29.96 in 10.0 mi West 5.8 mph - N/A   Partly Cloudy
2:56 PM 81.0 °F - N/A% 29.94 in 10.0 mi West 5.8 mph - N/A   Overcast
3:56 PM 81.0 °F - N/A% 29.93 in 10.0 mi West 5.8 mph - N/A   Overcast
4:56 PM 81.0 °F -4.0 °F 4% 29.94 in 10.0 mi SW 6.9 mph - N/A   Partly Cloudy
5:56 PM 80.1 °F 50.0 °F 35% 29.94 in 10.0 mi WSW 10.4 mph - N/A   Overcast
6:56 PM 79.0 °F 55.9 °F 45% 29.95 in 10.0 mi ENE 4.6 mph - N/A   Overcast
7:56 PM 78.1 °F 57.0 °F 48% 29.97 in 10.0 mi East 3.5 mph - N/A   Mostly Cloudy
8:56 PM 75.0 °F 57.0 °F 53% 29.98 in 10.0 mi SE 6.9 mph - N/A   Mostly Cloudy
9:56 PM 73.0 °F 55.0 °F 53% 29.99 in 10.0 mi Calm Calm - N/A   Partly Cloudy
10:56 PM 72.0 °F 53.1 °F 51% 29.99 in 10.0 mi ESE 4.6 mph - N/A   Clear
11:56 PM 73.0 °F 54.0 °F 51% 29.99 in 10.0 mi Calm Calm - N/A   Clear